Directory Listing
Index of /dewikinews/20260201/

Index of /dewikinews/20260201/


../
dewikinews-20260201-all-titles-in-ns0.gz           02-Feb-2026 03:37    319K
dewikinews-20260201-all-titles.gz                  02-Feb-2026 03:37    868K
dewikinews-20260201-babel.sql.gz                   02-Feb-2026 00:50    1748
dewikinews-20260201-category.sql.gz                02-Feb-2026 00:49    177K
dewikinews-20260201-categorylinks.sql.gz           02-Feb-2026 00:49      2M
dewikinews-20260201-change_tag.sql.gz              02-Feb-2026 00:50    260K
dewikinews-20260201-change_tag_def.sql.gz          02-Feb-2026 00:50    1324
dewikinews-20260201-externallinks.sql.gz           02-Feb-2026 00:49      2M
dewikinews-20260201-geo_tags.sql.gz                02-Feb-2026 00:49     883
dewikinews-20260201-image.sql.gz                   02-Feb-2026 00:49    7253
dewikinews-20260201-imagelinks.sql.gz              02-Feb-2026 00:49    404K
dewikinews-20260201-iwlinks.sql.gz                 02-Feb-2026 00:49      1M
dewikinews-20260201-langlinks.sql.gz               02-Feb-2026 00:49    766K
dewikinews-20260201-linktarget.sql.gz              02-Feb-2026 00:49      1M
dewikinews-20260201-md5sums.json                   02-Feb-2026 03:53    3068
dewikinews-20260201-md5sums.txt                    02-Feb-2026 03:53    2858
dewikinews-20260201-page.sql.gz                    02-Feb-2026 00:49      2M
dewikinews-20260201-page_props.sql.gz              02-Feb-2026 00:49    438K
dewikinews-20260201-page_restrictions.sql.gz       02-Feb-2026 00:49    127K
dewikinews-20260201-pagelinks.sql.gz               02-Feb-2026 00:49    761K
dewikinews-20260201-pages-articles-multistream-..> 02-Feb-2026 00:51    510K
dewikinews-20260201-pages-articles-multistream...> 02-Feb-2026 00:51     21M
dewikinews-20260201-pages-articles.xml.bz2         02-Feb-2026 00:51     18M
dewikinews-20260201-pages-logging.xml.gz           02-Feb-2026 03:37      4M
dewikinews-20260201-pages-meta-current.xml.bz2     02-Feb-2026 03:08     26M
dewikinews-20260201-pages-meta-history.xml.7z      02-Feb-2026 03:53    111M
dewikinews-20260201-pages-meta-history.xml.bz2     02-Feb-2026 03:50    322M
dewikinews-20260201-protected_titles.sql.gz        02-Feb-2026 00:49    2331
dewikinews-20260201-redirect.sql.gz                02-Feb-2026 00:49     10K
dewikinews-20260201-runsettings.txt                01-Feb-2026 11:35      28
dewikinews-20260201-sha1sums.json                  02-Feb-2026 03:53    3373
dewikinews-20260201-sha1sums.txt                   02-Feb-2026 03:53    3162
dewikinews-20260201-site_stats.sql.gz              02-Feb-2026 00:49     844
dewikinews-20260201-siteinfo-namespaces.json.gz    02-Feb-2026 03:37    6647
dewikinews-20260201-siteinfo2-namespacesv2.json.gz 02-Feb-2026 03:37    6903
dewikinews-20260201-sites.sql.gz                   02-Feb-2026 00:50     23K
dewikinews-20260201-stub-articles.xml.gz           01-Feb-2026 11:42      4M
dewikinews-20260201-stub-meta-current.xml.gz       01-Feb-2026 11:42      6M
dewikinews-20260201-stub-meta-history.xml.gz       01-Feb-2026 11:42     60M
dewikinews-20260201-templatelinks.sql.gz           02-Feb-2026 00:49    283K
dewikinews-20260201-user_former_groups.sql.gz      02-Feb-2026 00:49     878
dewikinews-20260201-user_groups.sql.gz             02-Feb-2026 00:49     953
dewikinews-20260201-wbc_entity_usage.sql.gz        02-Feb-2026 00:50    279K
dumpruninfo.json                                   02-Feb-2026 03:53    2562
dumpruninfo.txt                                    02-Feb-2026 03:53    2202
dumpspecialfiles.json                              02-Feb-2026 03:53     131
dumpstatus.json                                    02-Feb-2026 03:53     11K
md5sums-dewikinews-20260201-all-titles-in-ns0.g..> 02-Feb-2026 03:37      75
md5sums-dewikinews-20260201-all-titles.gz.txt      02-Feb-2026 03:37      68
md5sums-dewikinews-20260201-babel.sql.gz.txt       02-Feb-2026 00:50      67
md5sums-dewikinews-20260201-category.sql.gz.txt    02-Feb-2026 00:49      70
md5sums-dewikinews-20260201-categorylinks.sql.g..> 02-Feb-2026 00:49      75
md5sums-dewikinews-20260201-change_tag.sql.gz.txt  02-Feb-2026 00:50      72
md5sums-dewikinews-20260201-change_tag_def.sql...> 02-Feb-2026 00:50      76
md5sums-dewikinews-20260201-externallinks.sql.g..> 02-Feb-2026 00:49      75
md5sums-dewikinews-20260201-geo_tags.sql.gz.txt    02-Feb-2026 00:50      70
md5sums-dewikinews-20260201-image.sql.gz.txt       02-Feb-2026 00:49      67
md5sums-dewikinews-20260201-imagelinks.sql.gz.txt  02-Feb-2026 00:49      72
md5sums-dewikinews-20260201-iwlinks.sql.gz.txt     02-Feb-2026 00:49      69
md5sums-dewikinews-20260201-langlinks.sql.gz.txt   02-Feb-2026 00:49      71
md5sums-dewikinews-20260201-linktarget.sql.gz.txt  02-Feb-2026 00:49      72
md5sums-dewikinews-20260201-page.sql.gz.txt        02-Feb-2026 00:49      66
md5sums-dewikinews-20260201-page_props.sql.gz.txt  02-Feb-2026 00:49      72
md5sums-dewikinews-20260201-page_restrictions.s..> 02-Feb-2026 00:49      79
md5sums-dewikinews-20260201-pagelinks.sql.gz.txt   02-Feb-2026 00:49      71
md5sums-dewikinews-20260201-pages-articles-mult..> 02-Feb-2026 00:51      95
md5sums-dewikinews-20260201-pages-articles-mult..> 02-Feb-2026 00:51      89
md5sums-dewikinews-20260201-pages-articles.xml...> 02-Feb-2026 00:51      77
md5sums-dewikinews-20260201-pages-logging.xml.g..> 02-Feb-2026 03:37      75
md5sums-dewikinews-20260201-pages-meta-current...> 02-Feb-2026 03:08      81
md5sums-dewikinews-20260201-pages-meta-history...> 02-Feb-2026 03:53      80
md5sums-dewikinews-20260201-pages-meta-history...> 02-Feb-2026 03:50      81
md5sums-dewikinews-20260201-protected_titles.sq..> 02-Feb-2026 00:49      78
md5sums-dewikinews-20260201-redirect.sql.gz.txt    02-Feb-2026 00:49      70
md5sums-dewikinews-20260201-site_stats.sql.gz.txt  02-Feb-2026 00:49      72
md5sums-dewikinews-20260201-siteinfo-namespaces..> 02-Feb-2026 03:37      82
md5sums-dewikinews-20260201-siteinfo2-namespace..> 02-Feb-2026 03:37      85
md5sums-dewikinews-20260201-sites.sql.gz.txt       02-Feb-2026 00:50      67
md5sums-dewikinews-20260201-stub-articles.xml.g..> 01-Feb-2026 11:42      75
md5sums-dewikinews-20260201-stub-meta-current.x..> 01-Feb-2026 11:42      79
md5sums-dewikinews-20260201-stub-meta-history.x..> 01-Feb-2026 11:42      79
md5sums-dewikinews-20260201-templatelinks.sql.g..> 02-Feb-2026 00:49      75
md5sums-dewikinews-20260201-user_former_groups...> 02-Feb-2026 00:49      80
md5sums-dewikinews-20260201-user_groups.sql.gz.txt 02-Feb-2026 00:49      73
md5sums-dewikinews-20260201-wbc_entity_usage.sq..> 02-Feb-2026 00:50      78
report.json                                        02-Feb-2026 03:53    6231
sha1sums-dewikinews-20260201-all-titles-in-ns0...> 02-Feb-2026 03:37      83
sha1sums-dewikinews-20260201-all-titles.gz.txt     02-Feb-2026 03:37      76
sha1sums-dewikinews-20260201-babel.sql.gz.txt      02-Feb-2026 00:50      75
sha1sums-dewikinews-20260201-category.sql.gz.txt   02-Feb-2026 00:49      78
sha1sums-dewikinews-20260201-categorylinks.sql...> 02-Feb-2026 00:49      83
sha1sums-dewikinews-20260201-change_tag.sql.gz.txt 02-Feb-2026 00:50      80
sha1sums-dewikinews-20260201-change_tag_def.sql..> 02-Feb-2026 00:50      84
sha1sums-dewikinews-20260201-externallinks.sql...> 02-Feb-2026 00:49      83
sha1sums-dewikinews-20260201-geo_tags.sql.gz.txt   02-Feb-2026 00:50      78
sha1sums-dewikinews-20260201-image.sql.gz.txt      02-Feb-2026 00:49      75
sha1sums-dewikinews-20260201-imagelinks.sql.gz.txt 02-Feb-2026 00:49      80
sha1sums-dewikinews-20260201-iwlinks.sql.gz.txt    02-Feb-2026 00:49      77
sha1sums-dewikinews-20260201-langlinks.sql.gz.txt  02-Feb-2026 00:49      79
sha1sums-dewikinews-20260201-linktarget.sql.gz.txt 02-Feb-2026 00:49      80
sha1sums-dewikinews-20260201-page.sql.gz.txt       02-Feb-2026 00:49      74
sha1sums-dewikinews-20260201-page_props.sql.gz.txt 02-Feb-2026 00:49      80
sha1sums-dewikinews-20260201-page_restrictions...> 02-Feb-2026 00:49      87
sha1sums-dewikinews-20260201-pagelinks.sql.gz.txt  02-Feb-2026 00:49      79
sha1sums-dewikinews-20260201-pages-articles-mul..> 02-Feb-2026 00:51     103
sha1sums-dewikinews-20260201-pages-articles-mul..> 02-Feb-2026 00:51      97
sha1sums-dewikinews-20260201-pages-articles.xml..> 02-Feb-2026 00:51      85
sha1sums-dewikinews-20260201-pages-logging.xml...> 02-Feb-2026 03:37      83
sha1sums-dewikinews-20260201-pages-meta-current..> 02-Feb-2026 03:08      89
sha1sums-dewikinews-20260201-pages-meta-history..> 02-Feb-2026 03:53      88
sha1sums-dewikinews-20260201-pages-meta-history..> 02-Feb-2026 03:51      89
sha1sums-dewikinews-20260201-protected_titles.s..> 02-Feb-2026 00:49      86
sha1sums-dewikinews-20260201-redirect.sql.gz.txt   02-Feb-2026 00:49      78
sha1sums-dewikinews-20260201-site_stats.sql.gz.txt 02-Feb-2026 00:49      80
sha1sums-dewikinews-20260201-siteinfo-namespace..> 02-Feb-2026 03:37      90
sha1sums-dewikinews-20260201-siteinfo2-namespac..> 02-Feb-2026 03:37      93
sha1sums-dewikinews-20260201-sites.sql.gz.txt      02-Feb-2026 00:50      75
sha1sums-dewikinews-20260201-stub-articles.xml...> 01-Feb-2026 11:42      83
sha1sums-dewikinews-20260201-stub-meta-current...> 01-Feb-2026 11:42      87
sha1sums-dewikinews-20260201-stub-meta-history...> 01-Feb-2026 11:42      87
sha1sums-dewikinews-20260201-templatelinks.sql...> 02-Feb-2026 00:49      83
sha1sums-dewikinews-20260201-user_former_groups..> 02-Feb-2026 00:49      88
sha1sums-dewikinews-20260201-user_groups.sql.gz..> 02-Feb-2026 00:49      81
sha1sums-dewikinews-20260201-wbc_entity_usage.s..> 02-Feb-2026 00:50      86
status.html                                        02-Feb-2026 03:53     115
tableinfo.json                                     01-Feb-2026 08:36    1540